| time (UTC) | temp C | wind direction | speed KPH | gust KPH | rain 1hr cm | rain 24hr cm | rain mn cm | humidity % | barometer mb |
| 20260505021552 | 16 | 19 | 0.0 | 11.3 | 0.00 | 0.00 | 0.00 | 56 | 1025.7 |
| 20260505020059 | 16 | 64 | 0.0 | 0.0 | 0.00 | 0.00 | 0.00 | 55 | 1025.7 |
| 20260505014552 | 16 | 289 | 1.6 | 8.0 | 0.00 | 0.00 | 0.00 | 55 | 1025.7 |
| 20260505013049 | 16 | 135 | 0.0 | 9.7 | 0.00 | 0.00 | 0.00 | 54 | 1025.7 |
| 20260505011551 | 16 | 290 | 0.0 | 14.5 | 0.00 | 0.00 | 0.00 | 54 | 1025.7 |
| 20260505010107 | 17 | 52 | 0.0 | 8.0 | 0.00 | 0.00 | 0.00 | 52 | 1025.7 |
| 20260505004548 | 17 | 258 | 0.0 | 1.6 | 0.00 | 0.00 | 0.00 | 51 | 1025.7 |
| 20260505003054 | 17 | 263 | 0.0 | 9.7 | 0.00 | 0.00 | 0.00 | 50 | 1025.7 |
| 20260505001547 | 18 | 267 | 0.0 | 16.1 | 0.00 | 0.00 | 0.00 | 49 | 1025.7 |
| 20260505000048 | 18 | 314 | 0.0 | 3.2 | 0.00 | 0.00 | 0.00 | 46 | 1025.7 |
| 20260504234546 | 19 | 329 | 0.0 | 6.4 | 0.00 | 0.00 | 0.00 | 44 | 1025.7 |
| 20260504233102 | 20 | 210 | 0.0 | 8.0 | 0.00 | 0.00 | 0.00 | 41 | 1025.7 |
| 20260504231547 | 20 | 265 | 0.0 | 8.0 | 0.00 | 0.00 | 0.00 | 37 | 1025.7 |
| 20260504230053 | 21 | 29 | 0.0 | 0.0 | 0.00 | 0.00 | 0.00 | 37 | 1025.7 |
| 20260504224543 | 21 | 32 | 0.0 | 8.0 | 0.00 | 0.00 | 0.00 | 37 | 1025.7 |
| 20260504223044 | 21 | 320 | 0.0 | 6.4 | 0.00 | 0.00 | 0.00 | 35 | 1025.7 |
| 20260504221542 | 22 | 321 | 0.0 | 9.7 | 0.00 | 0.00 | 0.00 | 35 | 1025.7 |
| 20260504220043 | 22 | 134 | 1.6 | 11.3 | 0.00 | 0.00 | 0.00 | 34 | 1025.7 |
| 20260504214543 | 22 | 273 | 0.0 | 11.3 | 0.00 | 0.00 | 0.00 | 35 | 1025.7 |
| 20260504213041 | 22 | 240 | 4.8 | 12.9 | 0.00 | 0.00 | 0.00 | 32 | 1025.7 |
| 20260504211541 | 22 | 264 | 1.6 | 9.7 | 0.00 | 0.00 | 0.00 | 32 | 1025.7 |
| 20260504210044 | 22 | 170 | 0.0 | 14.5 | 0.00 | 0.00 | 0.00 | 33 | 1025.7 |
| 20260504204547 | 22 | 285 | 1.6 | 11.3 | 0.00 | 0.00 | 0.00 | 32 | 1025.7 |
| 20260504203053 | 22 | 283 | 0.0 | 12.9 | 0.00 | 0.00 | 0.00 | 31 | 1025.7 |
| 20260504201538 | 22 | 266 | 0.0 | 12.9 | 0.00 | 0.00 | 0.00 | 31 | 1025.7 |
| 20260504200037 | 22 | 14 | 1.6 | 11.3 | 0.00 | 0.00 | 0.00 | 30 | 1025.7 |
| 20260504194537 | 22 | 18 | 0.0 | 12.9 | 0.00 | 0.00 | 0.00 | 30 | 1025.7 |
| 20260504193035 | 22 | 284 | 1.6 | 19.3 | 0.00 | 0.00 | 0.00 | 31 | 1025.7 |
| 20260504191534 | 22 | 281 | 3.2 | 12.9 | 0.00 | 0.00 | 0.00 | 30 | 1025.7 |
| 20260504190042 | 22 | 320 | 0.0 | 11.3 | 0.00 | 0.00 | 0.00 | 31 | 1025.7 |
| 20260504184535 | 23 | 271 | 1.6 | 12.9 | 0.00 | 0.00 | 0.00 | 29 | 1025.7 |
| 20260504183034 | 23 | 27 | 0.0 | 12.9 | 0.00 | 0.00 | 0.00 | 30 | 1025.7 |
| 20260504181529 | 22 | 347 | 1.6 | 16.1 | 0.00 | 0.00 | 0.00 | 30 | 1025.7 |
| 20260504180028 | 22 | 341 | 0.0 | 8.0 | 0.00 | 0.00 | 0.00 | 31 | 1025.7 |
| 20260504174526 | 22 | 42 | 9.7 | 19.3 | 0.00 | 0.00 | 0.00 | 31 | 1025.7 |
| 20260504173024 | 22 | 297 | 3.2 | 20.9 | 0.00 | 0.00 | 0.00 | 32 | 1025.7 |
| 20260504171523 | 22 | 32 | 0.0 | 16.1 | 0.00 | 0.00 | 0.00 | 32 | 1025.7 |
| 20260504081531 | 6 | 33 | 0.0 | 0.0 | 0.00 | 0.00 | 0.00 | 70 | 1025.7 |
| 20260504050116 | 2 | 33 | 0.0 | 0.0 | 0.00 | 0.00 | 0.00 | 86 | 1025.7 |
| 20260504044559 | 2 | 33 | 0.0 | 0.0 | 0.00 | 0.00 | 0.00 | 85 | 1025.7 |
| 20260504043108 | 2 | 33 | 0.0 | 0.0 | 0.00 | 0.00 | 0.00 | 84 | 1025.7 |
| 20260504041556 | 2 | 33 | 0.0 | 0.0 | 0.00 | 0.00 | 0.00 | 84 | 1025.7 |
| 20260504040059 | 2 | 33 | 0.0 | 0.0 | 0.00 | 0.00 | 0.00 | 83 | 1025.7 |
| 20260504034557 | 2 | 33 | 0.0 | 0.0 | 0.00 | 0.00 | 0.00 | 81 | 1025.7 |
| 20260504033057 | 2 | 33 | 0.0 | 0.0 | 0.00 | 0.00 | 0.00 | 81 | 1025.7 |
| 20260504031557 | 2 | 33 | 0.0 | 0.0 | 0.00 | 0.00 | 0.00 | 78 | 1025.7 |
| 20260504030049 | 3 | 33 | 0.0 | 0.0 | 0.00 | 0.00 | 0.00 | 78 | 1025.7 |
| 20260504024548 | 3 | 33 | 0.0 | 0.0 | 0.00 | 0.00 | 0.00 | 76 | 1025.7 |
| 20260504023046 | 3 | 33 | 0.0 | 0.0 | 0.00 | 0.00 | 0.00 | 75 | 1025.7 |